TimeEDT,TemperatureF,Dew PointF,Humidity,Sea Level PressureIn,VisibilityMPH,Wind Direction,Wind SpeedMPH,Gust SpeedMPH,PrecipitationIn,Events,Conditions,WindDirDegrees,DateUTC
12:54 AM,53.1,52.0,96,29.84,9.0,West,3.5,-,N/A,,Mostly Cloudy,270,2013-04-01 04:54:00
1:54 AM,54.0,52.0,93,29.83,10.0,West,4.6,-,N/A,,Overcast,260,2013-04-01 05:54:00
2:54 AM,53.1,52.0,96,29.82,9.0,WSW,3.5,-,0.00,Rain,Light Rain,250,2013-04-01 06:54:00
3:54 AM,52.0,51.1,97,29.82,5.0,SW,3.5,-,0.00,Rain,Light Rain,230,2013-04-01 07:54:00
4:27 AM,51.8,51.8,100,29.83,2.5,SW,3.5,-,0.00,Fog,Shallow Fog,230,2013-04-01 08:27:00
4:54 AM,51.1,51.1,100,29.83,3.0,Calm,Calm,-,0.00,Fog,Shallow Fog,0,2013-04-01 08:54:00
5:54 AM,52.0,51.1,97,29.83,9.0,NW,3.5,-,N/A,,Mostly Cloudy,310,2013-04-01 09:54:00
6:54 AM,51.1,48.0,89,29.86,10.0,NNW,4.6,-,N/A,,Partly Cloudy,330,2013-04-01 10:54:00
7:54 AM,48.0,45.0,89,29.88,10.0,WNW,4.6,-,N/A,,Partly Cloudy,290,2013-04-01 11:54:00
8:54 AM,54.0,46.0,75,29.88,10.0,NW,9.2,-,N/A,,Clear,310,2013-04-01 12:54:00
9:54 AM,57.9,41.0,53,29.87,10.0,WNW,8.1,-,N/A,,Clear,300,2013-04-01 13:54:00
10:54 AM,62.1,39.9,44,29.88,10.0,West,11.5,-,N/A,,Clear,280,2013-04-01 14:54:00
11:54 AM,64.0,37.9,38,29.87,10.0,West,12.7,-,N/A,,Clear,270,2013-04-01 15:54:00
12:54 PM,66.9,37.0,33,29.86,10.0,West,11.5,20.7,N/A,,Partly Cloudy,270,2013-04-01 16:54:00
1:54 PM,68.0,37.0,32,29.84,10.0,West,19.6,24.2,N/A,,Scattered Clouds,260,2013-04-01 17:54:00
2:54 PM,69.1,36.0,30,29.83,10.0,WNW,19.6,26.5,N/A,,Mostly Cloudy,300,2013-04-01 18:54:00
3:54 PM,69.1,35.1,29,29.83,10.0,West,19.6,31.1,N/A,,Mostly Cloudy,280,2013-04-01 19:54:00
4:54 PM,64.9,36.0,34,29.84,10.0,WNW,20.7,32.2,N/A,,Mostly Cloudy,290,2013-04-01 20:54:00
5:54 PM,64.0,36.0,35,29.85,10.0,WNW,16.1,25.3,N/A,,Mostly Cloudy,290,2013-04-01 21:54:00
6:54 PM,62.1,36.0,38,29.85,10.0,WNW,18.4,26.5,N/A,,Scattered Clouds,290,2013-04-01 22:54:00
7:54 PM,60.1,36.0,41,29.87,10.0,West,10.4,-,N/A,,Scattered Clouds,280,2013-04-01 23:54:00
8:54 PM,57.9,36.0,44,29.89,10.0,NW,5.8,-,N/A,,Partly Cloudy,320,2013-04-02 00:54:00
9:54 PM,55.0,35.1,47,29.91,10.0,NW,9.2,-,N/A,,Clear,320,2013-04-02 01:54:00
10:54 PM,54.0,34.0,47,29.94,10.0,NNW,5.8,-,N/A,,Partly Cloudy,330,2013-04-02 02:54:00
11:54 PM,48.0,33.1,56,29.97,10.0,North,9.2,-,N/A,,Partly Cloudy,360,2013-04-02 03:54:00